Weather Roundup
Issued by NWS

Home | Current Version | Previous Version | Graphics & Text | Print | Product List | Glossary Off
Versions: 1 2 3 4 5 6 7 8 9 10 11 12 13 14 15 16 17 18 19 20 21 22 23 24 25 26 27 28 29 30 31 32 33 34 35 36 37 38 39 40 41 42 43 44 45 46 47 48 49 50

185
NZUS93 KARX 111959
HRRWXR

CURRENT HOURLY OBSERVATIONS ACROSS
MUCH OF THE UPPER MISSISSIPPI VALLEY
NATIONAL WEATHER SERVICE LA CROSSE WI
200 PM CST MON DEC 11 2017


...SOUTHEAST MINNESOTA...


CITY           SKY/WX    TMP DP  RH WIND       PRES   REMARKS
ROCHESTER      CLOUDY    33  31  92 N17       29.80R WCI  22
ROCHESTER/MAYO CLOUDY    33  31  94 NW13G25   29.80R WCI  23
WINONA         CLOUDY    32  30  93 NW9       29.79R WCI  24
AUSTIN         NOT AVBL
ALBERT LEA     NOT AVBL
DODGE CENTER   CLOUDY    34  30  86 NW22G30   29.82R WCI  22
PRESTON        LGT SNOW  32  31  94 N14G22    29.77R WCI  22
OWATONNA       CLOUDY    36  30  80 N21G26    29.85R WCI  24
FARIBAULT      CLOUDY    36  28  75 NW20G26   29.86R WCI  25
$$

...ELSEWHERE IN MINNESOTA...


CITY           SKY/WX    TMP DP  RH WIND       PRES   REMARKS
MINNEAPOLIS    CLOUDY    34  28  79 N22G29    29.88R WCI  22
INTNL FALLS    CLOUDY    17   7  64 N22       30.02R WCI   0
DULUTH         FLURRIES  22  15  75 N26G36    29.85R WCI   5
RED WING       CLOUDY    34  27  75 N10G20    29.84R WCI  26
REDWOOD FALLS  CLOUDY    31  24  75 N24G35    30.00R WCI  17
MANKATO        CLOUDY    36  30  79 NW21G30   29.89R WCI  25
WORTHINGTON    CLOUDY    30  27  88 N33G39    29.98R WCI  14
FAIRMONT       CLOUDY    34  30  85 NW30      29.91R WCI  20
$$

...SOUTHWEST WISCONSIN...


CITY           SKY/WX    TMP DP  RH WIND       PRES   REMARKS
LA CROSSE      CLOUDY    31  27  85 NW7       29.77R FOG     WCI  24
PRAIRIE DU CHI SNOW      31  28  91 NW3       29.74R VSB 1/2
BOSCOBEL       SNOW      31  29  92 CALM      29.74S VSB 1/2
LONE ROCK      NOT AVBL
PLATTEVILLE    CLOUDY    33  28  82 NW6       29.70S WCI  28
FORT MC COY    CLOUDY    30  26  87 W3        29.75S
CAMP DOUGLAS   CLOUDY    32  25  74 NW7       29.73R WCI  26
MAUSTON-NEW LI CLOUDY    31  26  80 NW7       29.71S WCI  25
VIROQUA        CLOUDY    29  29  99 NW7       29.71S WCI  22
WIS DELLS      CLOUDY    31  26  80 W5        29.70S WCI  26
$$

...ELSEWHERE IN WISCONSIN...


CITY           SKY/WX    TMP DP  RH WIND       PRES   REMARKS
MILWAUKEE      CLOUDY    33  29  85 CALM      29.70F
MADISON        FLURRIES  32  25  75 NW5       29.70R WCI  27
GREEN BAY      CLOUDY    29  25  85 CALM      29.72F
EAU CLAIRE     CLOUDY    31  25  78 N15G21    29.80R WCI  20
BLACK RVR FLS  CLOUDY    32  25  75 NW6       29.76R WCI  26
MEDFORD        CLOUDY    25  23  93 NW6       29.72R FOG     WCI  18
WAUSAU         CLOUDY    25  23  92 NW8       29.71R FOG     WCI  16
WIS RAPIDS     CLOUDY    30  24  78 NW9       29.74R WCI  22
MARSHFIELD     CLOUDY    28  24  85 NW13      29.71R FOG     WCI  17
RICE LAKE      CLOUDY    30  25  81 NW15G22   29.82R WCI  19
$$

...NORTHEAST IOWA...


CITY           SKY/WX    TMP DP  RH WIND       PRES   REMARKS
WATERLOO       CLOUDY    36  33  89 NW15      29.78R WCI  27
DUBUQUE        FRZ RAIN  31  30  96 N12       29.69R FOG     WCI  22
DECORAH        CLOUDY    34  34 100 NW6       29.74R WCI  29
MASON CITY     CLOUDY    35  32  88 NW25G35   29.84R FOG     WCI  23
CHARLES CITY   CLOUDY    36  36 100 NW23G35   29.79R WCI  24
OELWEIN        LGT SNOW  34  34 100 NW14      29.74R WCI  24
$$

...ELSEWHERE IN IOWA...


CITY           SKY/WX    TMP DP  RH WIND       PRES   REMARKS
DES MOINES     CLOUDY    43  32  65 NW22G41   29.86R
IOWA CITY      CLOUDY    43  28  55 NW24G32   29.76R
FORT DODGE     MIX PCPN  37  33  85 N17G29    29.90R WCI  27
MARSHALLTOWN   CLOUDY    40  36  86 NW22G31   29.80R WCI  30
CEDAR RAPIDS   CLOUDY    39  31  72 NW24G32   29.74R WCI  28
$$

...NORTHERN ILLINOIS...


CITY           SKY/WX    TMP DP  RH WIND       PRES   REMARKS
CHICAGO-OHARE  CLOUDY    38  25  59 SE7       29.67F WCI  33
CHICAGO-MIDWAY CLOUDY    39  26  59 SE8       29.67F WCI  33
MOLINE         CLOUDY    44  27  51 NW20      29.67R
ROCKFORD       CLOUDY    37  26  64 E3        29.69S
PEORIA         MOSUNNY   47  25  42 W20G30    29.65S
$$

NOTE: "FAIR" INDICATES FEW OR NO CLOUDS BELOW 12,000 FEET WITH NO
SIGNIFICANT WEATHER AND/OR OBSTRUCTIONS TO VISIBILITY. WIND
SPEEDS ARE IN MILES-PER-HOUR.




USA.gov is the U.S. government's official web portal to all federal, state and local government web resources and services.